RH
29 28 29 30 31 32 32 32 33 35 38 40 41 42 42 43 45 46 47 49 50 51 53 56 57 58 58 58 59 59 58 58 58 57 57 58 57 56 55 53 52 50 49 46 45 47 51 55 58 59 60 61 61 63 66 66 65 63 61 59 57 56 54 53 52 49 45 41 38 37 37 37 38 38 37 36 35 35 34 32 32 33 35 35 33
31 32 32 32 32 32 33 34 35 37 40 42 43 43 44 45 45 45 45 45 46 47 48 51 56 58 58 58 57 57 56 56 56 55 55 56 57 58 56 55 52 51 49 48 47 48 49 50 52 54 56 58 60 63 67 70 72 71 69 67 64 61 59 57 56 56 55 51 46 41 39 38 38 38 39 39 38 38 37 36 34 34 34 33 32
34 35 35 34 34 35 35 37 38 38 40 43 44 45 46 48 48 48 48 47 48 47 46 46 50 54 55 55 55 54 54 54 53 52 51 51 54 55 56 55 53 52 51 49 49 49 48 47 48 49 50 52 55 59 64 68 74 77 77 76 74 71 68 64 62 62 62 61 57 51 47 43 41 39 39 39 39 39 39 39 37 36 36 35 34
37 37 36 36 38 38 37 38 39 40 41 43 44 46 48 51 51 53 55 55 54 52 49 45 45 47 50 52 52 52 50 49 49 49 49 50 51 52 53 52 52 52 51 50 49 48 47 47 47 47 47 47 49 54 59 65 71 76 77 78 79 78 77 75 72 69 67 67 66 63 58 54 50 46 43 41 41 40 39 39 39 39 38 38 36
37 37 37 38 39 38 38 39 41 42 43 44 45 47 49 51 52 54 57 58 58 56 51 46 41 39 41 43 44 44 44 45 46 46 48 49 49 49 49 49 50 50 50 49 48 47 47 47 46 46 45 45 46 48 52 57 63 67 70 72 75 77 77 77 77 75 73 71 71 71 69 64 60 56 53 49 46 44 41 41 41 40 40 40 39
36 36 37 38 39 39 39 41 43 44 45 45 46 48 49 51 52 53 55 57 59 58 52 44 39 35 34 36 37 38 39 41 43 44 45 46 46 46 47 48 48 48 48 47 46 46 46 47 47 47 46 46 46 47 49 52 57 60 62 64 67 68 70 72 75 77 77 77 76 76 76 72 67 65 63 59 55 52 50 47 44 42 42 41 40
36 36 37 38 40 41 42 43 45 46 47 48 49 50 52 53 54 55 56 56 56 56 51 45 41 39 39 40 41 40 39 39 42 43 45 45 45 45 46 46 45 45 44 44 44 44 45 46 46 46 46 47 48 49 51 53 55 57 59 60 62 63 64 67 72 77 80 81 82 83 83 79 74 72 71 68 65 62 59 56 52 49 45 43 41
37 38 38 39 41 42 44 45 46 47 47 48 50 52 54 56 57 58 57 55 53 54 52 50 47 46 46 46 46 45 42 39 41 45 47 48 47 46 45 44 42 41 40 40 40 40 40 41 41 42 44 46 47 49 51 53 55 57 60 62 63 63 63 64 67 73 78 83 86 89 90 88 85 82 80 77 76 75 72 67 62 58 54 49 44
38 39 39 39 41 43 44 45 46 47 48 49 51 53 55 57 58 58 57 57 56 57 57 56 54 52 51 50 49 49 45 41 42 45 47 47 46 44 43 41 40 38 37 37 36 37 37 36 37 38 40 42 44 47 50 53 55 56 57 59 60 60 60 60 61 63 69 76 82 87 89 89 90 90 89 88 88 89 86 80 74 70 66 59 52
38 38 38 40 41 42 43 44 45 47 49 51 53 54 54 54 56 57 59 61 62 62 62 61 59 57 55 53 53 52 49 44 43 44 45 45 44 41 38 36 34 33 32 32 32 32 32 33 33 34 35 37 38 40 43 46 49 51 53 54 55 55 55 56 56 57 59 64 70 76 79 81 84 87 90 93 96 97 95 90 85 80 76 72 68
36 37 39 40 40 41 42 44 46 48 50 52 54 54 52 52 52 56 61 65 65 64 65 65 63 61 59 57 56 54 50 46 44 43 43 42 40 38 36 33 31 30 28 28 27 27 27 27 27 27 28 28 29 29 31 32 35 38 42 45 48 50 51 52 52 53 54 55 59 65 70 74 76 79 83 87 92 96 97 95 92 88 84 81 79
36 37 38 39 40 41 42 45 47 49 51 52 52 51 50 50 51 55 61 65 65 65 66 66 66 65 63 60 58 54 50 48 45 43 41 39 37 34 33 31 29 28 27 26 25 24 24 23 22 22 22 22 21 21 21 22 23 25 28 31 34 37 39 40 41 44 45 47 50 54 60 64 66 69 72 74 79 86 90 92 93 93 93 90 87
36 37 38 39 40 42 44 47 49 51 51 50 49 49 49 51 53 55 58 60 62 65 67 67 68 67 64 61 57 53 51 50 46 41 37 36 35 33 31 30 28 27 26 26 25 23 23 22 21 20 20 20 20 20 20 20 20 21 22 23 26 29 31 32 35 37 38 39 40 43 48 53 56 60 65 67 71 76 81 85 88 91 93 95 92
37 38 39 40 42 43 46 49 50 51 49 48 48 49 50 53 55 58 59 59 60 64 67 67 67 67 64 61 57 54 52 49 43 37 35 36 36 35 33 31 29 27 26 25 23 22 21 21 20 20 21 21 21 22 23 23 22 23 23 24 27 31 35 37 39 40 40 39 38 37 39 43 46 50 55 59 63 68 74 79 82 84 87 91 93
39 40 41 42 43 45 47 50 51 50 49 48 48 51 54 57 59 62 64 62 61 63 65 65 66 66 65 62 57 53 50 45 39 36 36 38 38 37 35 33 31 28 26 24 24 24 23 23 23 23 24 24 24 26 26 27 27 28 28 29 32 35 37 39 41 42 43 44 43 41 41 40 41 43 45 48 51 56 63 70 75 77 79 83 87
41 42 44 46 47 49 50 51 51 50 49 50 51 54 58 62 64 67 67 65 64 63 62 63 65 67 65 59 52 48 45 43 40 37 38 40 40 38 36 35 32 30 27 25 26 27 27 26 26 27 27 27 28 28 28 28 28 28 29 30 32 34 36 37 39 40 41 42 43 44 45 45 45 46 46 47 47 48 52 59 66 70 72 74 78
42 45 48 51 53 54 53 52 51 51 51 52 55 59 64 68 69 68 67 66 65 63 61 62 66 67 62 53 46 44 45 44 41 39 41 42 40 38 36 34 32 29 27 26 27 29 28 28 27 27 27 27 27 26 26 25 26 26 28 29 31 32 35 37 38 40 40 39 39 40 41 43 45 47 48 49 49 48 49 52 57 61 65 69 71
43 47 50 54 56 57 56 54 52 52 53 56 60 64 70 72 72 70 68 67 67 64 64 65 65 63 57 49 45 46 47 45 42 42 44 44 40 38 36 33 31 29 27 25 25 27 28 28 28 27 27 27 26 25 24 24 24 25 26 28 30 31 33 35 37 38 37 37 37 37 38 39 41 42 45 47 48 49 49 51 54 59 63 68 70
45 49 53 55 57 58 58 56 55 54 55 58 62 66 70 72 72 71 70 69 68 66 66 64 59 54 50 47 48 49 48 45 44 46 47 45 41 38 35 32 30 29 28 26 25 26 28 29 29 28 28 27 25 24 24 24 25 25 26 28 29 29 31 31 31 31 32 32 33 33 34 35 37 39 40 43 46 48 50 50 52 56 61 67 70
47 51 54 56 58 59 59 57 56 55 56 60 65 67 68 70 71 71 70 70 69 66 64 59 54 49 49 50 51 50 47 46 47 48 47 44 41 37 33 31 30 28 27 27 26 28 29 29 29 28 27 26 25 24 25 25 25 25 25 24 24 24 26 26 27 27 27 27 27 29 30 31 33 35 36 38 42 46 49 50 51 53 57 62 68
51 53 56 58 60 60 59 58 57 57 60 67 70 68 66 68 71 72 72 70 66 62 59 54 51 50 52 53 51 47 47 47 48 48 46 43 39 36 33 31 29 28 27 26 27 29 29 29 28 27 26 25 24 24 25 24 23 22 21 22 22 21 20 20 21 22 23 24 25 26 28 29 32 34 35 36 37 39 42 47 50 53 54 57 63
55 57 59 61 61 60 61 61 61 63 67 71 71 67 65 67 70 70 70 66 61 58 55 52 52 54 54 52 48 46 47 48 47 47 45 42 38 35 32 30 28 27 26 27 28 29 29 29 28 27 26 25 25 25 25 23 21 20 20 21 21 20 20 19 19 19 19 20 20 22 23 25 28 31 33 35 36 36 37 39 44 49 53 55 60
58 60 61 61 62 62 64 64 65 68 70 69 68 69 69 68 67 66 64 61 58 55 53 53 55 56 53 51 48 47 47 46 46 45 42 39 36 32 30 28 27 26 27 28 29 29 29 29 28 27 27 26 26 26 25 24 23 22 22 22 21 21 20 19 19 19 19 19 19 20 21 23 25 27 29 32 35 36 36 37 38 41 44 49 54
61 62 62 62 63 63 64 66 68 68 66 66 69 72 70 67 65 63 61 59 56 54 53 56 58 56 53 51 49 46 45 45 44 42 39 36 33 31 28 27 25 26 29 30 30 30 30 29 28 27 27 28 28 28 28 28 27 26 25 25 24 24 23 22 22 22 21 21 20 20 21 22 24 25 26 28 31 32 33 34 35 36 37 40 45
63 63 62 63 64 62 63 65 66 65 64 67 71 70 66 65 63 61 59 57 55 56 58 60 59 55 52 49 46 45 45 43 40 37 35 33 31 28 26 24 25 28 30 30 30 31 30 29 28 28 28 28 27 28 28 30 30 30 29 27 26 25 25 25 24 24 24 23 23 22 21 22 23 24 25 25 26 26 26 27 28 31 33 34 37
62 61 61 62 63 62 62 63 63 66 68 70 69 66 63 62 60 57 56 56 57 61 63 60 56 52 49 46 45 44 43 39 36 35 33 30 27 25 23 24 27 30 31 31 31 31 30 29 29 29 28 26 25 26 27 28 28 27 25 24 24 25 26 26 27 26 25 24 23 22 22 21 22 23 24 24 24 23 23 23 22 24 27 30 33
61 60 61 63 63 63 64 64 65 68 71 69 67 63 60 58 56 54 55 58 63 65 62 57 53 49 47 45 44 42 39 36 34 32 29 27 25 24 24 24 26 28 29 29 29 29 29 29 29 27 25 23 23 24 25 25 24 23 21 21 22 24 25 27 28 27 26 25 24 24 23 22 22 22 23 25 25 25 26 25 24 24 25 27 30
61 61 62 64 64 64 65 67 68 69 69 68 64 59 57 58 58 58 61 65 67 64 58 53 50 48 45 44 43 40 38 35 32 30 28 26 25 23 22 22 21 22 23 24 24 25 26 26 24 22 20 19 18 18 19 19 20 22 22 22 23 24 25 25 26 26 27 27 27 26 26 25 24 23 23 24 26 27 27 27 26 26 26 26 28
62 63 64 65 66 66 66 67 67 66 66 64 61 60 63 66 66 65 67 68 64 59 54 51 49 47 45 44 42 40 37 33 30 29 28 26 24 22 21 20 19 19 20 21 23 25 24 22 20 19 18 17 15 14 14 15 16 19 22 24 25 25 26 26 27 28 28 29 29 28 28 27 26 25 24 24 24 25 26 27 28 27 27 26 26
63 63 64 65 66 67 68 68 67 67 66 65 65 68 73 73 70 67 68 65 59 55 53 52 49 47 46 44 42 38 34 30 28 28 27 25 22 20 20 19 18 18 20 23 26 25 22 20 19 18 18 17 17 17 16 16 16 18 20 23 26 28 28 29 31 31 31 32 32 32 31 30 29 28 28 27 25 23 23 24 25 26 27 27 26
64 63 64 66 65 66 70 73 73 73 73 73 73 76 78 76 72 69 67 64 59 56 54 52 49 48 46 43 39 34 30 27 27 26 24 22 20 19 19 19 19 20 22 24 25 22 20 19 19 18 17 17 19 20 21 21 21 21 20 22 26 30 31 32 33 35 35 35 35 35 35 34 33 32 31 29 27 25 24 23 24 24 26 27 27
65 65 66 66 65 68 75 80 80 80 80 80 80 80 80 78 75 72 68 63 59 57 55 52 49 46 43 38 33 29 26 26 25 23 21 20 19 19 19 20 21 22 23 23 23 21 20 19 18 16 16 16 17 19 21 21 23 25 26 27 28 31 33 34 35 36 36 36 37 37 37 36 36 35 34 32 29 27 25 26 26 26 25 26 27
63 64 65 66 68 74 81 84 83 84 84 84 83 81 80 78 76 72 67 62 58 56 53 50 47 43 37 32 28 26 25 25 24 22 21 21 21 21 21 22 23 24 24 23 22 21 20 18 17 15 15 15 16 17 19 21 23 27 32 34 35 35 36 37 38 38 38 38 39 39 38 37 38 37 36 35 33 30 29 30 30 29 27 25 26
63 65 66 70 76 80 82 84 85 87 86 85 84 82 79 77 73 68 63 59 57 54 51 47 44 38 32 27 26 26 25 24 23 23 22 23 23 23 24 25 25 25 24 24 23 21 20 18 16 16 15 15 15 16 18 22 27 30 33 35 36 37 37 38 38 38 39 39 39 38 37 37 37 37 37 37 36 35 34 34 35 33 27 22 22
68 70 73 78 81 81 81 85 88 88 86 85 83 80 76 72 67 63 60 58 54 51 48 44 39 34 29 26 26 25 24 24 23 24 24 25 25 25 26 26 26 25 25 25 23 21 20 18 18 17 16 15 16 17 20 25 30 34 35 36 36 36 36 36 36 36 36 36 36 36 36 36 37 39 39 39 38 37 36 37 38 35 27 21 20
69 74 79 83 84 82 84 89 90 88 86 84 81 76 71 66 64 62 59 55 51 49 45 40 36 32 30 29 28 26 25 24 24 25 26 26 26 26 27 27 26 26 26 25 23 22 20 19 18 18 17 17 17 18 23 29 34 36 37 38 37 36 36 36 36 36 36 37 37 38 38 39 40 41 41 40 39 39 38 40 40 36 28 22 19
69 72 76 82 87 88 90 90 88 85 84 82 77 72 68 66 64 61 56 52 49 46 41 38 35 35 34 32 30 28 27 26 26 26 26 26 27 27 28 27 27 27 27 26 24 23 21 20 19 18 18 18 18 19 25 32 36 38 38 39 39 38 37 36 37 37 38 37 38 37 38 39 40 41 41 41 40 41 42 43 40 35 29 24 21
71 75 80 87 92 92 91 89 86 84 82 78 74 72 69 67 63 57 52 49 46 43 39 38 37 36 35 33 31 30 29 29 29 28 27 27 28 28 28 27 27 27 27 26 26 24 22 20 19 18 19 19 19 21 28 35 38 38 39 39 39 38 36 35 36 37 36 36 36 36 36 38 40 40 39 39 40 44 47 44 38 33 31 29 26
81 87 91 93 93 91 89 87 84 81 78 76 74 72 69 64 58 52 49 47 44 41 39 37 36 36 35 34 33 33 32 31 30 29 28 29 30 29 28 27 27 27 27 27 27 25 22 19 19 19 20 20 20 22 29 37 39 38 39 40 38 37 36 36 37 37 36 37 40 43 43 43 42 40 38 38 41 45 46 43 39 36 34 32 30
92 94 94 93 92 91 88 85 81 78 77 75 73 70 64 58 52 49 47 45 43 40 38 37 37 37 36 35 35 35 34 32 30 29 30 30 30 29 28 28 28 29 29 29 27 24 20 19 19 19 20 22 23 25 29 36 39 39 40 40 38 37 38 38 38 39 40 43 48 51 49 47 44 41 39 41 44 45 43 41 41 40 38 36 35
95 94 94 93 92 89 85 82 79 78 76 74 69 64 58 53 49 48 46 44 41 39 38 37 37 38 37 37 37 36 34 32 31 31 31 30 29 29 30 31 31 31 32 29 26 21 19 19 19 20 22 25 27 27 30 34 38 39 39 39 38 38 38 38 40 43 48 53 57 57 54 50 47 44 43 46 49 48 46 45 45 45 43 42 40
94 94 93 92 91 87 83 80 78 77 74 70 64 58 53 50 48 47 44 42 39 38 38 38 39 38 38 38 37 36 34 34 33 32 31 30 30 31 32 33 33 33 30 26 22 19 19 19 19 21 25 28 29 30 32 35 37 37 38 38 38 38 39 42 46 52 56 60 64 64 60 56 52 50 50 52 52 51 51 51 51 51 50 48 46
93 93 93 91 88 84 80 78 76 73 68 62 57 53 51 49 47 45 41 40 39 39 39 39 39 38 38 38 37 35 35 34 33 32 31 31 32 33 33 33 32 30 27 23 20 20 20 20 19 21 26 29 31 32 35 36 36 36 37 37 38 40 43 49 54 59 62 64 66 67 67 64 61 57 56 55 54 54 55 56 55 55 53 51 48
93 92 91 88 83 79 77 74 70 64 60 56 53 52 49 46 44 42 40 40 41 41 40 39 39 38 38 38 37 36 35 33 32 31 31 32 33 33 33 32 31 28 24 22 21 21 20 19 18 20 25 29 30 32 34 35 35 36 37 37 39 44 49 55 59 63 66 66 66 67 67 68 67 65 63 61 59 57 57 56 55 52 51 50 48
89 87 83 80 77 74 71 67 62 58 56 54 51 49 46 44 43 42 43 43 42 41 40 39 39 38 37 37 36 35 33 31 31 30 31 32 33 33 32 31 29 26 24 22 21 20 20 19 18 21 26 29 30 30 32 34 35 37 37 38 42 49 55 59 63 66 68 68 67 66 66 66 66 65 62 59 56 53 51 50 49 48 49 50 49
82 78 75 74 71 68 64 61 58 56 53 50 48 46 45 45 45 45 45 44 42 41 40 39 37 37 36 36 35 33 31 31 31 32 33 33 33 33 33 31 28 25 24 22 20 20 19 18 19 24 29 31 30 30 31 33 34 36 38 40 45 54 60 64 66 68 69 70 70 69 66 62 59 55 50 47 46 47 47 47 49 52 55 57 57
71 68 67 65 62 60 58 57 56 52 49 47 46 46 46 45 45 45 45 43 41 40 39 37 36 36 36 35 33 32 32 33 33 33 34 35 35 34 33 30 27 25 23 21 20 19 19 19 22 28 32 33 32 32 33 33 35 36 37 40 48 56 63 66 69 70 71 71 70 66 61 55 51 48 45 44 44 46 48 52 57 61 64 65 65
60 58 56 55 54 54 54 52 50 47 45 45 45 45 45 44 44 44 43 41 40 39 37 36 36 36 35 34 33 33 34 35 35 35 36 36 36 35 32 29 27 25 23 21 21 19 19 21 26 31 34 34 34 34 34 34 35 36 37 41 49 58 64 67 69 69 67 66 64 61 57 53 50 48 48 47 48 50 53 57 62 66 68 70 72
57 55 53 52 53 53 52 49 46 44 45 46 46 45 45 45 44 43 42 41 39 38 37 36 36 36 35 34 34 35 36 37 38 38 38 37 36 33 31 29 27 26 24 22 20 20 20 24 30 35 36 35 34 34 34 34 35 36 37 42 50 59 64 66 65 63 60 59 59 58 56 53 52 51 51 52 54 56 59 62 66 70 72 72 73
66 63 59 56 56 55 54 51 48 47 47 47 47 48 48 47 45 43 41 40 39 37 37 37 37 36 36 36 37 38 39 40 40 40 39 37 35 33 31 29 28 27 24 22 21 20 22 28 34 37 36 35 35 35 34 34 35 36 38 42 48 55 59 60 60 59 58 58 57 57 55 53 52 53 55 57 59 61 63 66 71 74 75 75 75
73 69 64 60 59 58 56 54 51 49 49 49 50 51 50 48 46 43 41 41 40 38 38 38 38 38 38 39 40 42 43 44 43 42 39 37 35 32 30 28 28 26 24 22 22 23 25 31 35 36 35 34 34 34 34 34 35 34 34 37 44 51 55 57 58 59 58 58 57 56 54 52 52 53 56 60 64 66 68 70 72 73 74 75 78